Regional Weather Roundup
Issued by NWS

Home | Current Version | Previous Version | Graphics & Text | Print | Product List | Glossary On
Versions: 1 2 3 4 5 6 7 8 9 10 11 12 13 14 15 16 17 18 19 20 21 22 23 24 25 26 27 28 29 30 31 32 33 34 35 36 37 38 39 40 41 42 43 44 45 46 47 48 49 50
000
ASUS43 KLOT 231908
RWRIL

ILLINOIS REGIONAL WEATHER ROUNDUP
NATIONAL WEATHER SERVICE CHICAGO/ROMEOVILLE IL
100 PM CST FRI FEB 23 2018

NOTE: "FAIR" INDICATES FEW OR NO CLOUDS BELOW 12,000 FEET WITH NO
SIGNIFICANT WEATHER AND/OR OBSTRUCTIONS TO VISIBILITY.

* THESE STATIONS ARE NOT UNDER NWS QUALITY CONTROL. THEY ALSO MAY NOT
  REPORT WEATHER SUCH AS PRECIPITATION OR FOG.

ILZ001-002-007-009-015-016-024-232000-
NORTHWEST ILLINOIS

CITY           SKY/WX    TMP DP  RH WIND       PRES   REMARKS
MOLINE         CLOUDY    40  34  79 W12       30.22F
STERLING*      CLOUDY    38  34  85 W13       30.21S WCI  30
SAVANNA*       CLOUDY    40  31  71 W10G17    30.21R
$$

ILZ003-004-008-010-011-017-018-232000-
NORTH CENTRAL ILLINOIS

CITY           SKY/WX    TMP DP  RH WIND       PRES   REMARKS
ROCKFORD       CLOUDY    37  32  82 W10       30.20S WCI  30
FREEPORT*      CLOUDY    37  33  83 W12G17    30.19S WCI  30
ROCHELLE*      CLOUDY    35  34  94 W12       30.21S WCI  27
DE KALB*       CLOUDY    36  35  96 W14       30.19S WCI  27
PERU*          CLOUDY    36  33  90 W12       30.23S WCI  27
$$

ILZ005-006-012>014-019>023-232000-
NORTHEAST ILLINOIS

CITY           SKY/WX    TMP DP  RH WIND       PRES   REMARKS
CHICAGO-OHARE  CLOUDY    40  35  83 W16G24    30.17R
CHICAGO-MIDWAY CLOUDY    41  37  86 W15       30.18S
AURORA         CLOUDY    38  35  89 W18       30.19S WCI  28
LANSING*       CLOUDY    40  39  96 W17G23    30.20R
JOLIET*        CLOUDY    40  37  89 W13G21    30.21S
WAUKEGAN       CLOUDY    38  35  89 W9G18     30.14R WCI  31
DUPAGE AIRPORT CLOUDY    38  37  97 W14       30.18R WCI  30
KANKAKEE*      CLOUDY    40  39  97 W17       30.23R
WHEELING       CLOUDY    41  37  86 W15G23    30.17R
MORRIS*        CLOUDY    38  36  91 W15G22    30.21S WCI  29
ROMEOVILLE*    CLOUDY    38  36  93 W15       30.20R WCI  29
NORTHERLY ISL    N/A     40  35  83 W9          N/A
$$

LMZ740>746-232000-
SOUTHERN LAKE MICHIGAN

STATION/POSITION SKY/WX   TEMP    WIND        PRES    VSBY  WAVE
                          AIR SEA DIR/SP/G                  HT/PER
                          (F)     (DEG/KT/KT) (MB)    (MI)  (FT/S)
HARRISON CRIB              40     270/ 15/ 17   N/A
BURNHAM HARBOR             40     250/  8/ 16   N/A
CALUMET HARBOR             41     240/ 11/ 19 1021.2R
BURNS HARBOR               40     250/ 15/ 17 1022.4R
MICHIGAN CITY              38     240/ 19/ 21   N/A
$$

ILZ025>027-034>036-040-047-049-050-058-095>099-232000-
WEST-CENTRAL ILLINOIS

CITY           SKY/WX    TMP DP  RH WIND       PRES   REMARKS
QUINCY         CLOUDY    37  34  89 W8        30.27S WCI  31
GALESBURG*     CLOUDY    37  35  92 W14       30.26S WCI  28
MACOMB*        CLOUDY   N/A N/A N/A W12       30.28S
JACKSONVILLE*  CLOUDY    39  37  89 W8        30.26F WCI  34
PITTSFIELD*    CLOUDY    38  36  92 W8        30.28F WCI  32
$$

ILZ028>032-037-038-041>044-048-051>054-059>061-232000-
CENTRAL ILLINOIS

CITY           SKY/WX    TMP DP  RH WIND       PRES   REMARKS
PONTIAC        CLOUDY    39  39  98 W14       30.23F WCI  31
BLOOMINGTON    CLOUDY    39  37  92 W15       30.23F WCI  31
DECATUR        CLOUDY    44  40  85 W9        30.25F
PEORIA         CLOUDY    37  34  89 W13       30.26R WCI  29
LACON*         CLOUDY    37  34  90 W7        30.24S WCI  31
LINCOLN*       CLOUDY    41  39  93 W6        30.25F
SPRINGFIELD    CLOUDY    42  39  89 W10       30.26F
TAYLORVILLE    CLOUDY    44  41  88 W8        30.26F
$$

ILZ033-039-045-046-055>057-062-063-232000-
EAST-CENTRAL ILLINOIS

CITY           SKY/WX    TMP DP  RH WIND       PRES   REMARKS
CHAMPAIGN      CLOUDY    44  41  89 W14       30.24F
DANVILLE*      CLOUDY    46  42  89 W16       30.21S
RANTOUL*       CLOUDY    45  42  91 W14       30.24S
MATTOON        CLOUDY    47  43  86 W9G20     30.25S
PARIS*         CLOUDY    47  45  91 W13       30.26F
$$

ILZ079-100>102-232000-
SOUTHWEST ILLINOIS

CITY           SKY/WX    TMP DP  RH WIND       PRES   REMARKS
ALTON          CLOUDY    46  46 100 NW6       30.26F
BELLEVILLE     CLOUDY    50  42  74 W3        30.24F
CAHOKIA*       CLOUDY    49  42  77 W5        30.25F
SPARTA*        CLOUDY    50  48  90 NW5       30.27F
$$

ILZ064>066-069>071-074>076-080>082-084>086-088>090-092>094-232000-
SOUTH-CENTRAL ILLINOIS

CITY           SKY/WX    TMP DP  RH WIND       PRES   REMARKS
CARBONDALE     CLOUDY    52  49  89 N3        30.27F
CAIRO*         DRIZZLE   52  51  95 CALM      30.26S
EFFINGHAM*     CLOUDY    50  47  90 W6        30.27F
MARION         CLOUDY    52  52 100 CALM      30.28F
MT. VERNON     CLOUDY    51  46  83 VRB3      30.26F
CENTRALIA*     CLOUDY    51  47  85 W6        30.25F
SALEM*         PTSUNNY   52  46  78 W10       30.25F
METROPOLIS*    CLOUDY    56  53  91 E6        30.26F
$$

ILZ067-068-072-073-078-083-087-091-232000-
SOUTHEAST ILLINOIS

CITY           SKY/WX    TMP DP  RH WIND       PRES   REMARKS
LAWRENCEVILLE  CLOUDY    53  48  83 SW9       30.27R
FLORA*         PTSUNNY   53  47  80 W7        30.26F
FAIRFIELD*     PTSUNNY   51  47  87 MISG      30.25F
HARRISBURG*    LGT RAIN  52  49  89 W8        30.29S
ROBINSON*      CLOUDY    51  48  89 W7        30.27F
CARMI*         FAIR      52  48  87 NW6       30.26F
$$

ABBREVIATIONS USED IN REMARKS
   TC - TEMPERATURE IN CELSIUS
  WCI - WIND CHILL INDEX
   HX - HEAT INDEX
  VSB - VISIBILITY
$$





USA.gov is the U.S. government's official web portal to all federal, state and local government web resources and services.